Tracking 31027 objects as of 19-Jul-2025
HD Live streaming from Space Station
objects crossing your sky now

ATLAS AGENA B DEB

Track ATLAS AGENA B DEB now!
10-day predictions


NORAD ID: 3121
Int'l Code: 1963-030F
Perigee: 3,675.2 km
Apogee: 3,741.0 km
Inclination: 88.4 °
Period: 167.8 minutes
Semi major axis: 10079 km
RCS: 0.1321 m2 (medium)
Launch date: July 19, 1963
Source: United States (US)
Launch site: AIR FORCE WESTERN TEST RANGE (AFWTR)

Note: This is SATELLITE DEBRIS
Your satellite tracking list
TITAN 3C TRANSTAGE DEB
Track 1 satellite(s)




NASA's NSSDC Master Catalog

Two Line Element Set (TLE):
1 03121U 63030F   25199.31922415 -.00000013  00000-0 -76408-2 0  9995
2 03121  88.4160 227.0573 0032672  41.5657 318.7670  8.57968008178133
Source of the keplerian elements: AFSPC